Flag for Germany Weather past 2 weeks in Lohmar, North Rhine-Westphalia, Germany

Now
57 °F

Partly sunny.


Feels Like: 57 °F
Forecast: 49 / 62 °F
Wind: 2 mph from West

Location: Koeln / Bonn

Current Time: May 24, 2015 at 9:58:13 AM

Latest Report: May 24, 2015 at 9:20 AM


Visibility: N/A

Pressure: 30.12 "Hg

Humidity: 72%

Dew point: 48 °F

Location of LohmarLocation

Historic Weather in Lohmar — Graph

°F

Lohmar temperature yesterday

Maximum temperature yesterday: 72 °F (at 3:20 PM)
Minimum temperature yesterday: 45 °F (at 3:50 AM)
Average temperature yesterday: 57 °F

Past Weeks' High & Low Weather Summary

 TemperatureHumidityPressure
High79 °F (May 11, 4:50 PM)94% (May 15, 7:20 AM)30.36 "Hg (May 15, 7:20 AM)
Low39 °F (May 17, 4:50 AM)26% (May 14, 3:50 PM)29.65 "Hg (May 18, 7:20 PM)
Average57 °F63%30.08 "Hg
* Reported May 9 8:20 AM — May 24 8:50 AM, Lohmar, Weather by CustomWeather, © 2015

Note: Actual official high and low records may vary slightly from our data, if they occured in-between our weather recording intervals... More about our weather records

Advertising

Lohmar weather history for previous 24 hours

 ConditionsComfort  
Time TempWeatherWind HumidityBarometerVisibility
8:50 AM
Sun, May 24
55 °FPartly sunny.2 mph77%30.12 "HgN/A
8:20 AM55 °FPartly sunny.3 mph77%30.12 "HgN/A
7:50 AM54 °FOvercast.6 mph82%30.12 "HgN/A
7:20 AM54 °FOvercast.5 mph77%30.12 "HgN/A
6:50 AM54 °FOvercast.6 mph82%30.12 "HgN/A
6:20 AM54 °FPassing clouds.5 mph82%30.12 "HgN/A
5:50 AM54 °FPartly cloudy.5 mph82%30.12 "HgN/A
5:20 AM54 °FPartly cloudy.3 mph82%30.12 "HgN/A
4:50 AM54 °FOvercast.3 mph82%30.12 "HgN/A
4:20 AM54 °FOvercast.3 mph82%30.12 "HgN/A
3:50 AM54 °FOvercast.3 mph82%30.12 "HgN/A
3:20 AM54 °FPartly cloudy.2 mph82%30.12 "HgN/A
2:50 AM55 °FPartly cloudy.5 mph77%30.12 "HgN/A
2:20 AM55 °FPartly cloudy.5 mph77%30.12 "HgN/A
1:50 AM55 °FPassing clouds.5 mph77%30.15 "HgN/A
1:20 AM55 °FPassing clouds.5 mph82%30.15 "HgN/A
12:50 AM55 °FPassing clouds.6 mph82%30.15 "HgN/A
12:20 AM55 °FPartly cloudy.6 mph82%30.15 "HgN/A
11:50 PM
Sat, May 23
55 °FPassing clouds.6 mph82%30.15 "HgN/A
11:20 PM55 °FPassing clouds.7 mph82%30.15 "HgN/A
10:50 PM55 °FPassing clouds.7 mph82%30.15 "HgN/A
10:20 PM57 °FBroken clouds.8 mph77%30.15 "HgN/A
9:50 PM57 °FBroken clouds.7 mph77%30.15 "HgN/A
9:20 PM57 °FBroken clouds.9 mph77%30.12 "HgN/A
8:50 PM59 °FBroken clouds.9 mph77%30.12 "HgN/A
8:20 PM59 °FBroken clouds.12 mph77%30.12 "HgN/A
7:50 PM61 °FBroken clouds.12 mph72%30.12 "HgN/A
7:20 PM61 °FLight rain. Broken clouds.12 mph72%30.12 "HgN/A
6:50 PM63 °FBroken clouds.14 mph68%30.09 "HgN/A
6:20 PM64 °FBroken clouds.14 mph64%30.09 "HgN/A
5:50 PM64 °FBroken clouds.12 mph60%30.09 "HgN/A
5:20 PM66 °FSunny.10 mph52%30.09 "Hg10 mi
4:50 PM66 °FSunny.10 mph46%30.09 "Hg10 mi
4:20 PM68 °FPassing clouds.12 mph40%30.09 "HgN/A
3:50 PM70 °FSunny.13 mph35%30.09 "Hg10 mi
3:20 PM72 °FPassing clouds.9 mph31%30.09 "HgN/A
2:50 PM70 °FPassing clouds.7 mph31%30.12 "HgN/A
2:20 PM68 °FSunny.8 mph40%30.12 "Hg10 mi
1:50 PM68 °FSunny.9 mph43%30.12 "Hg10 mi
1:20 PM66 °FPartly sunny.6 mph46%30.15 "HgN/A
12:50 PM64 °FPartly sunny.7 mph49%30.15 "HgN/A
12:20 PM64 °FPartly sunny.6 mph56%30.15 "HgN/A
11:50 AM63 °FPartly sunny.5 mph59%30.15 "HgN/A
11:20 AM63 °FSunny.3 mph59%30.18 "Hg10 mi
10:50 AM61 °FSunny.3 mph59%30.18 "Hg10 mi
10:20 AM59 °FSunny.5 mph68%30.18 "Hg10 mi
9:50 AM57 °FSunny.3 mph72%30.18 "Hg10 mi
9:20 AM55 °FSunny.1 mph77%30.18 "Hg10 mi
Weather by CustomWeather, © 2015

See weather overviewHow to use our weather pages